Voltar ao catálogo

NOAA 16 DEB

AtivoSSO
NORAD 41400·DEBRIS·🇺🇸 United States

Lançado Sep 21, 2000 de Vandenberg Space Force Base

Loading…

Próximas Passagens (próximas 24 horas)

TLE

AtualizadoSource: Space-Track

Época: Sep 14, 2026, 13:18 UTC

1 41400U 00055KD  26257.55422367  .00003037  00000-0  10455-2 0  9995
2 41400  98.7183 357.1287 0014094 352.3203   7.7765 14.36659063545353

Acompanhe NOAA 16 DEB em tempo real com AllMySat

Download on the App Store